Year,Month,Day,Hour,Minute,Value (Times are PST for insolation in W/m^2)
2011,10,04,00,00,0.00
2011,10,04,00,01,0.00
2011,10,04,00,02,0.00
2011,10,04,00,03,0.00
2011,10,04,00,04,0.00
2011,10,04,00,05,0.00
2011,10,04,00,06,0.00
2011,10,04,00,07,0.00
2011,10,04,00,08,0.00
2011,10,04,00,09,0.00
2011,10,04,00,10,0.00
2011,10,04,00,11,0.00
2011,10,04,00,12,0.00
2011,10,04,00,13,0.00
2011,10,04,00,14,0.00
2011,10,04,00,15,0.00
2011,10,04,00,16,0.00
2011,10,04,00,17,0.00
2011,10,04,00,18,0.00
2011,10,04,00,19,0.00
2011,10,04,00,20,0.00
2011,10,04,00,21,0.00
2011,10,04,00,22,0.00
2011,10,04,00,23,0.00
2011,10,04,00,24,0.00
2011,10,04,00,25,0.00
2011,10,04,00,26,0.00
2011,10,04,00,27,0.00
2011,10,04,00,28,0.00
2011,10,04,00,29,0.00
2011,10,04,00,30,0.00
2011,10,04,00,31,0.00
2011,10,04,00,32,0.00
2011,10,04,00,33,0.00
2011,10,04,00,34,0.00
2011,10,04,00,35,0.00
2011,10,04,00,36,0.00
2011,10,04,00,37,0.00
2011,10,04,00,38,0.00
2011,10,04,00,39,0.00
2011,10,04,00,40,0.00
2011,10,04,00,41,0.00
2011,10,04,00,42,0.00
2011,10,04,00,43,0.00
2011,10,04,00,44,0.00
2011,10,04,00,45,0.00
2011,10,04,00,46,0.00
2011,10,04,00,47,0.00
2011,10,04,00,48,0.00
2011,10,04,00,49,0.00
2011,10,04,00,50,0.00
2011,10,04,00,51,0.00
2011,10,04,00,52,0.00
2011,10,04,00,53,0.00
2011,10,04,00,54,0.00
2011,10,04,00,55,0.00
2011,10,04,00,56,0.00
2011,10,04,00,57,0.00
2011,10,04,00,58,0.00
2011,10,04,00,59,0.00
2011,10,04,01,00,0.00
2011,10,04,01,01,0.00
2011,10,04,01,02,0.00
2011,10,04,01,03,0.00
2011,10,04,01,04,0.00
2011,10,04,01,05,0.00
2011,10,04,01,06,0.00
2011,10,04,01,07,0.00
2011,10,04,01,08,0.00
2011,10,04,01,09,0.00
2011,10,04,01,10,0.00
2011,10,04,01,11,0.00
2011,10,04,01,12,0.00
2011,10,04,01,13,0.00
2011,10,04,01,14,0.00
2011,10,04,01,15,0.00
2011,10,04,01,16,0.00
2011,10,04,01,17,0.00
2011,10,04,01,18,0.00
2011,10,04,01,19,0.00
2011,10,04,01,20,0.00
2011,10,04,01,21,0.00
2011,10,04,01,22,0.00
2011,10,04,01,23,0.00
2011,10,04,01,24,0.00
2011,10,04,01,25,0.00
2011,10,04,01,26,0.00
2011,10,04,01,27,0.00
2011,10,04,01,28,0.00
2011,10,04,01,29,0.00
2011,10,04,01,30,0.00
2011,10,04,01,31,0.00
2011,10,04,01,32,0.00
2011,10,04,01,33,0.00
2011,10,04,01,34,0.00
2011,10,04,01,35,0.00
2011,10,04,01,36,0.00
2011,10,04,01,37,0.00
2011,10,04,01,38,0.00
2011,10,04,01,39,0.00
2011,10,04,01,40,0.00
2011,10,04,01,41,0.00
2011,10,04,01,42,0.00
2011,10,04,01,43,0.00
2011,10,04,01,44,0.00
2011,10,04,01,45,0.00
2011,10,04,01,46,0.00
2011,10,04,01,47,0.00
2011,10,04,01,48,0.00
2011,10,04,01,49,0.00
2011,10,04,01,50,0.00
2011,10,04,01,51,0.00
2011,10,04,01,52,0.00
2011,10,04,01,53,0.00
2011,10,04,01,54,0.00
2011,10,04,01,55,0.00
2011,10,04,01,56,0.00
2011,10,04,01,57,0.00
2011,10,04,01,58,0.00
2011,10,04,01,59,0.00
2011,10,04,02,00,0.00
2011,10,04,02,01,0.00
2011,10,04,02,02,0.00
2011,10,04,02,03,0.00
2011,10,04,02,04,0.00
2011,10,04,02,05,0.00
2011,10,04,02,06,0.00
2011,10,04,02,07,0.00
2011,10,04,02,08,0.00
2011,10,04,02,09,0.00
2011,10,04,02,10,0.00
2011,10,04,02,11,0.00
2011,10,04,02,12,0.00
2011,10,04,02,13,0.00
2011,10,04,02,14,0.00
2011,10,04,02,15,0.00
2011,10,04,02,16,0.00
2011,10,04,02,17,0.00
2011,10,04,02,18,0.00
2011,10,04,02,19,0.00
2011,10,04,02,20,0.00
2011,10,04,02,21,0.00
2011,10,04,02,22,0.00
2011,10,04,02,23,0.00
2011,10,04,02,24,0.00
2011,10,04,02,25,0.00
2011,10,04,02,26,0.00
2011,10,04,02,27,0.00
2011,10,04,02,28,0.00
2011,10,04,02,29,0.00
2011,10,04,02,30,0.00
2011,10,04,02,31,0.00
2011,10,04,02,32,0.00
2011,10,04,02,33,0.00
2011,10,04,02,34,0.00
2011,10,04,02,35,0.00
2011,10,04,02,36,0.00
2011,10,04,02,37,0.00
2011,10,04,02,38,0.00
2011,10,04,02,39,0.00
2011,10,04,02,40,0.00
2011,10,04,02,41,0.00
2011,10,04,02,42,0.00
2011,10,04,02,43,0.00
2011,10,04,02,44,0.00
2011,10,04,02,45,0.00
2011,10,04,02,46,0.00
2011,10,04,02,47,0.00
2011,10,04,02,48,0.00
2011,10,04,02,49,0.00
2011,10,04,02,50,0.00
2011,10,04,02,51,0.00
2011,10,04,02,52,0.00
2011,10,04,02,53,0.00
2011,10,04,02,54,0.00
2011,10,04,02,55,0.00
2011,10,04,02,56,0.00
2011,10,04,02,57,0.00
2011,10,04,02,58,0.00
2011,10,04,02,59,0.00
2011,10,04,03,00,0.00
2011,10,04,03,01,0.00
2011,10,04,03,02,0.00
2011,10,04,03,03,0.00
2011,10,04,03,04,0.00
2011,10,04,03,05,0.00
2011,10,04,03,06,0.00
2011,10,04,03,07,0.00
2011,10,04,03,08,0.00
2011,10,04,03,09,0.00
2011,10,04,03,10,0.00
2011,10,04,03,11,0.00
2011,10,04,03,12,0.00
2011,10,04,03,13,0.00
2011,10,04,03,14,0.00
2011,10,04,03,15,0.00
2011,10,04,03,16,0.00
2011,10,04,03,17,0.00
2011,10,04,03,18,0.00
2011,10,04,03,19,0.00
2011,10,04,03,20,0.00
2011,10,04,03,21,0.00
2011,10,04,03,22,0.00
2011,10,04,03,23,0.00
2011,10,04,03,24,0.00
2011,10,04,03,25,0.00
2011,10,04,03,26,0.00
2011,10,04,03,27,0.00
2011,10,04,03,28,0.00
2011,10,04,03,29,0.00
2011,10,04,03,30,0.00
2011,10,04,03,31,0.00
2011,10,04,03,32,0.00
2011,10,04,03,33,0.00
2011,10,04,03,34,0.00
2011,10,04,03,35,0.00
2011,10,04,03,36,0.00
2011,10,04,03,37,0.00
2011,10,04,03,38,0.00
2011,10,04,03,39,0.00
2011,10,04,03,40,0.00
2011,10,04,03,41,0.00
2011,10,04,03,42,0.00
2011,10,04,03,43,0.00
2011,10,04,03,44,0.00
2011,10,04,03,45,0.00
2011,10,04,03,46,0.00
2011,10,04,03,47,0.00
2011,10,04,04,03,0.00
2011,10,04,04,04,0.00
2011,10,04,04,05,0.00
2011,10,04,04,06,0.00
2011,10,04,04,07,0.00
2011,10,04,04,08,0.00
2011,10,04,04,09,0.00
2011,10,04,04,10,0.00
2011,10,04,04,11,0.00
2011,10,04,04,12,0.00
2011,10,04,04,13,0.00
2011,10,04,04,14,0.00
2011,10,04,04,15,0.00
2011,10,04,04,16,0.00
2011,10,04,04,17,0.00
2011,10,04,04,18,0.00
2011,10,04,04,19,0.00
2011,10,04,04,20,0.00
2011,10,04,04,21,0.00
2011,10,04,04,22,0.00
2011,10,04,04,23,0.00
2011,10,04,04,24,0.00
2011,10,04,04,25,0.00
2011,10,04,04,26,0.00
2011,10,04,04,27,0.00
2011,10,04,04,28,0.00
2011,10,04,04,29,0.00
2011,10,04,04,30,0.00
2011,10,04,04,31,0.00
2011,10,04,04,32,0.00
2011,10,04,04,33,0.00
2011,10,04,04,34,0.00
2011,10,04,04,35,0.00
2011,10,04,04,36,0.00
2011,10,04,04,37,0.00
2011,10,04,04,38,0.00
2011,10,04,04,39,0.00
2011,10,04,04,40,0.00
2011,10,04,04,41,0.00
2011,10,04,04,42,0.00
2011,10,04,04,43,0.00
2011,10,04,04,44,0.00
2011,10,04,04,45,0.00
2011,10,04,04,46,0.00
2011,10,04,04,47,0.00
2011,10,04,04,48,0.00
2011,10,04,04,49,0.00
2011,10,04,04,50,0.00
2011,10,04,04,51,0.00
2011,10,04,04,52,0.00
2011,10,04,04,53,0.00
2011,10,04,04,54,0.00
2011,10,04,04,55,0.00
2011,10,04,04,56,0.00
2011,10,04,04,57,0.00
2011,10,04,04,58,0.00
2011,10,04,04,59,0.00
2011,10,04,05,00,0.00
2011,10,04,05,01,0.00
2011,10,04,05,02,0.00
2011,10,04,05,03,0.00
2011,10,04,05,04,0.00
2011,10,04,05,05,0.00
2011,10,04,05,06,0.00
2011,10,04,05,07,0.00
2011,10,04,05,08,0.00
2011,10,04,05,09,0.00
2011,10,04,05,10,0.00
2011,10,04,05,11,0.00
2011,10,04,05,12,0.00
2011,10,04,05,13,0.00
2011,10,04,05,14,0.00
2011,10,04,05,15,0.00
2011,10,04,05,16,0.00
2011,10,04,05,17,0.00
2011,10,04,05,18,0.00
2011,10,04,05,19,0.00
2011,10,04,05,20,0.00
2011,10,04,05,21,0.00
2011,10,04,05,22,0.00
2011,10,04,05,23,0.00
2011,10,04,05,24,0.00
2011,10,04,05,25,0.00
2011,10,04,05,26,0.00
2011,10,04,05,27,0.00
2011,10,04,05,28,0.00
2011,10,04,05,29,0.00
2011,10,04,05,30,0.00
2011,10,04,05,31,0.00
2011,10,04,05,32,0.00
2011,10,04,05,33,0.00
2011,10,04,05,34,0.00
2011,10,04,05,35,0.00
2011,10,04,05,36,0.00
2011,10,04,05,37,0.00
2011,10,04,05,38,0.00
2011,10,04,05,39,0.00
2011,10,04,05,40,0.00
2011,10,04,05,41,0.00
2011,10,04,05,42,0.00
2011,10,04,05,43,0.00
2011,10,04,05,44,0.00
2011,10,04,05,45,0.00
2011,10,04,05,46,0.00
2011,10,04,05,47,0.00
2011,10,04,05,48,0.00
2011,10,04,05,49,0.00
2011,10,04,05,50,0.00
2011,10,04,05,51,0.00
2011,10,04,05,52,0.00
2011,10,04,05,53,0.00
2011,10,04,05,54,0.00
2011,10,04,05,55,0.00
2011,10,04,05,56,0.00
2011,10,04,05,57,0.00
2011,10,04,05,58,0.00
2011,10,04,05,59,0.00
2011,10,04,06,00,0.00
2011,10,04,06,01,0.00
2011,10,04,06,02,0.00
2011,10,04,06,03,0.00
2011,10,04,06,04,0.00
2011,10,04,06,05,0.00
2011,10,04,06,06,0.00
2011,10,04,06,07,0.00
2011,10,04,06,08,0.00
2011,10,04,06,09,0.00
2011,10,04,06,10,0.00
2011,10,04,06,11,0.00
2011,10,04,06,12,0.00
2011,10,04,06,13,0.00
2011,10,04,06,14,0.00
2011,10,04,06,15,0.00
2011,10,04,06,16,0.00
2011,10,04,06,17,0.00
2011,10,04,06,18,0.00
2011,10,04,06,19,0.00
2011,10,04,06,20,0.00
2011,10,04,06,21,0.00
2011,10,04,06,22,0.00
2011,10,04,06,23,0.00
2011,10,04,06,24,0.00
2011,10,04,06,25,0.00
2011,10,04,06,26,0.00
2011,10,04,06,27,0.00
2011,10,04,06,28,0.00
2011,10,04,06,29,0.00
2011,10,04,06,30,0.00
2011,10,04,06,31,0.00
2011,10,04,06,32,0.00
2011,10,04,06,33,0.00
2011,10,04,06,34,0.00
2011,10,04,06,35,0.00
2011,10,04,06,36,0.00
2011,10,04,06,37,0.00
2011,10,04,06,38,0.00
2011,10,04,06,39,0.00
2011,10,04,06,40,0.00
2011,10,04,06,41,0.00
2011,10,04,06,42,0.00
2011,10,04,06,43,0.00
2011,10,04,06,44,0.00
2011,10,04,06,45,0.00
2011,10,04,06,46,0.00
2011,10,04,06,47,0.00
2011,10,04,06,48,0.00
2011,10,04,06,49,0.00
2011,10,04,06,50,0.00
2011,10,04,06,51,0.00
2011,10,04,06,52,0.00
2011,10,04,06,53,0.00
2011,10,04,06,54,0.00
2011,10,04,06,55,0.00
2011,10,04,06,56,0.00
2011,10,04,06,57,0.00
2011,10,04,06,58,0.00
2011,10,04,06,59,0.00
2011,10,04,07,00,0.00
2011,10,04,07,01,0.00
2011,10,04,07,02,0.00
2011,10,04,07,03,0.00
2011,10,04,07,04,0.00
2011,10,04,07,05,0.00
2011,10,04,07,06,0.00
2011,10,04,07,07,0.00
2011,10,04,07,08,0.00
2011,10,04,07,09,0.00
2011,10,04,07,10,0.00
2011,10,04,07,11,0.00
2011,10,04,07,12,0.00
2011,10,04,07,13,0.00
2011,10,04,07,14,0.00
2011,10,04,07,15,2.00
2011,10,04,07,16,5.80
2011,10,04,07,17,7.00
2011,10,04,07,18,7.00
2011,10,04,07,19,8.00
2011,10,04,07,20,9.00
2011,10,04,07,21,10.20
2011,10,04,07,22,11.00
2011,10,04,07,23,11.00
2011,10,04,07,24,11.80
2011,10,04,07,25,12.00
2011,10,04,07,26,13.70
2011,10,04,07,27,14.00
2011,10,04,07,28,15.90
2011,10,04,07,29,17.90
2011,10,04,07,30,19.00
2011,10,04,07,31,23.00
2011,10,04,07,32,23.00
2011,10,04,07,33,23.50
2011,10,04,07,34,27.30
2011,10,04,07,35,32.80
2011,10,04,07,36,36.50
2011,10,04,07,37,40.70
2011,10,04,07,38,43.60
2011,10,04,07,39,44.30
2011,10,04,07,40,43.00
2011,10,04,07,41,41.40
2011,10,04,07,42,46.40
2011,10,04,07,43,54.70
2011,10,04,07,44,58.50
2011,10,04,07,45,61.40
2011,10,04,07,46,56.10
2011,10,04,07,47,46.60
2011,10,04,07,48,36.90
2011,10,04,07,49,33.30
2011,10,04,07,50,32.10
2011,10,04,07,51,32.90
2011,10,04,07,52,33.00
2011,10,04,07,53,33.10
2011,10,04,07,54,35.00
2011,10,04,07,55,35.00
2011,10,04,07,56,35.00
2011,10,04,07,57,35.40
2011,10,04,07,58,37.00
2011,10,04,07,59,37.80
2011,10,04,08,00,39.70
2011,10,04,08,01,38.30
2011,10,04,08,02,37.80
2011,10,04,08,03,39.00
2011,10,04,08,04,39.00
2011,10,04,08,05,39.00
2011,10,04,08,06,39.60
2011,10,04,08,07,40.00
2011,10,04,08,08,40.00
2011,10,04,08,09,40.00
2011,10,04,08,10,40.00
2011,10,04,08,11,40.00
2011,10,04,08,12,40.00
2011,10,04,08,13,39.20
2011,10,04,08,14,39.00
2011,10,04,08,15,39.00
2011,10,04,08,16,39.00
2011,10,04,08,17,39.00
2011,10,04,08,18,39.00
2011,10,04,08,19,39.20
2011,10,04,08,20,40.00
2011,10,04,08,21,40.00
2011,10,04,08,22,40.60
2011,10,04,08,23,42.00
2011,10,04,08,24,42.00
2011,10,04,08,25,42.80
2011,10,04,08,26,44.00
2011,10,04,08,27,44.00
2011,10,04,08,28,44.00
2011,10,04,08,29,42.80
2011,10,04,08,30,42.00
2011,10,04,08,31,42.00
2011,10,04,08,32,42.00
2011,10,04,08,33,42.00
2011,10,04,08,34,42.00
2011,10,04,08,35,42.00
2011,10,04,08,36,42.00
2011,10,04,08,37,42.00
2011,10,04,08,38,44.00
2011,10,04,08,39,44.00
2011,10,04,08,40,44.10
2011,10,04,08,41,46.00
2011,10,04,08,42,46.20
2011,10,04,08,43,47.00
2011,10,04,08,44,47.00
2011,10,04,08,45,47.00
2011,10,04,08,46,47.00
2011,10,04,08,47,47.00
2011,10,04,08,48,47.00
2011,10,04,08,49,47.00
2011,10,04,08,50,47.00
2011,10,04,08,51,47.00
2011,10,04,08,52,48.20
2011,10,04,08,53,49.00
2011,10,04,08,54,50.30
2011,10,04,08,55,52.50
2011,10,04,08,56,53.80
2011,10,04,08,57,55.60
2011,10,04,08,58,56.00
2011,10,04,08,59,56.00
2011,10,04,09,00,56.00
2011,10,04,09,01,57.80
2011,10,04,09,02,58.10
2011,10,04,09,03,60.10
2011,10,04,09,04,62.00
2011,10,04,09,05,62.20
2011,10,04,09,06,63.00
2011,10,04,09,07,63.50
2011,10,04,09,08,65.00
2011,10,04,09,09,64.40
2011,10,04,09,10,63.00
2011,10,04,09,11,62.50
2011,10,04,09,12,61.10
2011,10,04,09,13,59.10
2011,10,04,09,14,57.00
2011,10,04,09,15,54.80
2011,10,04,09,16,54.00
2011,10,04,09,17,54.00
2011,10,04,09,18,54.00
2011,10,04,09,19,55.50
2011,10,04,09,20,57.60
2011,10,04,09,21,58.00
2011,10,04,09,22,59.70
2011,10,04,09,23,61.90
2011,10,04,09,24,62.00
2011,10,04,09,25,62.00
2011,10,04,09,26,62.00
2011,10,04,09,27,62.00
2011,10,04,09,28,62.20
2011,10,04,09,29,63.00
2011,10,04,09,30,63.00
2011,10,04,09,31,63.00
2011,10,04,09,32,63.00
2011,10,04,09,33,63.70
2011,10,04,09,34,65.00
2011,10,04,09,35,65.90
2011,10,04,09,36,67.00
2011,10,04,09,37,68.10
2011,10,04,09,38,69.00
2011,10,04,09,39,69.70
2011,10,04,09,40,70.00
2011,10,04,09,41,70.00
2011,10,04,09,42,70.00
2011,10,04,09,43,70.00
2011,10,04,09,44,70.00
2011,10,04,09,45,71.80
2011,10,04,09,46,73.90
2011,10,04,09,47,74.00
2011,10,04,09,48,74.00
2011,10,04,09,49,74.00
2011,10,04,09,50,74.00
2011,10,04,09,51,74.00
2011,10,04,09,52,74.00
2011,10,04,09,53,74.00
2011,10,04,09,54,74.00
2011,10,04,09,55,74.00
2011,10,04,09,56,74.80
2011,10,04,09,57,76.00
2011,10,04,09,58,76.00
2011,10,04,09,59,76.00
2011,10,04,10,00,76.00
2011,10,04,10,01,76.00
2011,10,04,10,02,76.00
2011,10,04,10,03,76.70
2011,10,04,10,04,78.40
2011,10,04,10,05,80.50
2011,10,04,10,06,82.60
2011,10,04,10,07,83.80
2011,10,04,10,08,85.80
2011,10,04,10,09,87.90
2011,10,04,10,10,88.00
2011,10,04,10,11,90.10
2011,10,04,10,12,91.00
2011,10,04,10,13,91.20
2011,10,04,10,14,93.60
2011,10,04,10,15,97.20
2011,10,04,10,16,99.10
2011,10,04,10,17,102.90
2011,10,04,10,18,105.70
2011,10,04,10,19,108.40
2011,10,04,10,20,111.90
2011,10,04,10,21,114.40
2011,10,04,10,22,116.90
2011,10,04,10,23,119.10
2011,10,04,10,24,120.00
2011,10,04,10,25,120.60
2011,10,04,10,26,121.00
2011,10,04,10,27,121.00
2011,10,04,10,28,122.40
2011,10,04,10,29,124.50
2011,10,04,10,30,127.40
2011,10,04,10,31,129.70
2011,10,04,10,32,131.90
2011,10,04,10,33,130.10
2011,10,04,10,34,127.90
2011,10,04,10,35,127.00
2011,10,04,10,36,126.70
2011,10,04,10,37,124.70
2011,10,04,10,38,123.00
2011,10,04,10,39,123.40
2011,10,04,10,40,125.80
2011,10,04,10,41,128.70
2011,10,04,10,42,130.70
2011,10,04,10,43,132.80
2011,10,04,10,44,134.50
2011,10,04,10,45,136.80
2011,10,04,10,46,140.10
2011,10,04,10,47,141.60
2011,10,04,10,48,142.00
2011,10,04,10,49,142.00
2011,10,04,10,50,141.20
2011,10,04,10,51,139.50
2011,10,04,10,52,137.40
2011,10,04,10,53,137.00
2011,10,04,10,54,135.30
2011,10,04,10,55,136.90
2011,10,04,10,56,137.00
2011,10,04,10,57,139.20
2011,10,04,10,58,142.00
2011,10,04,10,59,142.20
2011,10,04,11,00,144.30
2011,10,04,11,01,146.40
2011,10,04,11,02,148.20
2011,10,04,11,03,149.60
2011,10,04,11,04,151.70
2011,10,04,11,05,153.70
2011,10,04,11,06,155.00
2011,10,04,11,07,155.00
2011,10,04,11,08,155.00
2011,10,04,11,09,155.50
2011,10,04,11,10,157.20
2011,10,04,11,11,159.30
2011,10,04,11,12,161.30
2011,10,04,11,13,162.70
2011,10,04,11,14,165.90
2011,10,04,11,15,167.00
2011,10,04,11,16,167.00
2011,10,04,11,17,161.10
2011,10,04,11,18,153.40
2011,10,04,11,19,146.40
2011,10,04,11,20,142.20
2011,10,04,11,21,141.10
2011,10,04,11,22,142.00
2011,10,04,11,23,142.00
2011,10,04,11,24,142.80
2011,10,04,11,25,147.00
2011,10,04,11,26,153.60
2011,10,04,11,27,163.10
2011,10,04,11,28,172.30
2011,10,04,11,29,178.40
2011,10,04,11,30,176.60
2011,10,04,11,31,173.10
2011,10,04,11,32,174.00
2011,10,04,11,33,177.10
2011,10,04,11,34,176.80
2011,10,04,11,35,177.30
2011,10,04,11,36,180.10
2011,10,04,11,37,184.70
2011,10,04,11,38,187.50
2011,10,04,11,39,193.90
2011,10,04,11,40,202.60
2011,10,04,11,41,212.10
2011,10,04,11,42,226.30
2011,10,04,11,43,245.10
2011,10,04,11,44,272.40
2011,10,04,11,45,278.30
2011,10,04,11,46,274.00
2011,10,04,11,47,273.20
2011,10,04,11,48,267.30
2011,10,04,11,49,260.90
2011,10,04,11,50,256.30
2011,10,04,11,51,253.80
2011,10,04,11,52,257.00
2011,10,04,11,53,259.10
2011,10,04,11,54,256.40
2011,10,04,11,55,252.70
2011,10,04,11,56,248.10
2011,10,04,11,57,242.80
2011,10,04,11,58,238.30
2011,10,04,11,59,237.00
2011,10,04,12,00,238.50
2011,10,04,12,01,239.00
2011,10,04,12,02,237.30
2011,10,04,12,03,236.10
2011,10,04,12,04,234.20
2011,10,04,12,05,234.00
2011,10,04,12,06,231.90
2011,10,04,12,07,229.90
2011,10,04,12,08,228.60
2011,10,04,12,09,224.40
2011,10,04,12,10,220.40
2011,10,04,12,11,218.00
2011,10,04,12,12,217.50
2011,10,04,12,13,216.70
2011,10,04,12,14,218.70
2011,10,04,12,15,220.40
2011,10,04,12,16,220.50
2011,10,04,12,17,219.00
2011,10,04,12,18,218.00
2011,10,04,12,19,219.10
2011,10,04,12,20,220.00
2011,10,04,12,21,220.00
2011,10,04,12,22,220.00
2011,10,04,12,23,220.00
2011,10,04,12,24,220.80
2011,10,04,12,25,221.00
2011,10,04,12,26,222.80
2011,10,04,12,27,224.90
2011,10,04,12,28,226.80
2011,10,04,12,29,229.00
2011,10,04,12,30,228.90
2011,10,04,12,31,227.00
2011,10,04,12,32,227.00
2011,10,04,12,33,227.60
2011,10,04,12,34,231.80
2011,10,04,12,35,238.30
2011,10,04,12,36,243.40
2011,10,04,12,37,250.60
2011,10,04,12,38,258.80
2011,10,04,12,39,265.40
2011,10,04,12,40,267.00
2011,10,04,12,41,265.90
2011,10,04,12,42,263.40
2011,10,04,12,43,263.80
2011,10,04,12,44,258.20
2011,10,04,12,45,249.10
2011,10,04,12,46,243.90
2011,10,04,12,47,243.00
2011,10,04,12,48,243.80
2011,10,04,12,49,245.80
2011,10,04,12,50,249.80
2011,10,04,12,51,254.50
2011,10,04,12,52,250.00
2011,10,04,12,53,246.20
2011,10,04,12,54,252.10
2011,10,04,12,55,261.20
2011,10,04,12,56,254.80
2011,10,04,12,57,245.50
2011,10,04,12,58,244.00
2011,10,04,12,59,244.70
2011,10,04,13,00,246.00
2011,10,04,13,01,244.70
2011,10,04,13,02,241.10
2011,10,04,13,03,236.50
2011,10,04,13,04,231.40
2011,10,04,13,05,227.90
2011,10,04,13,06,225.80
2011,10,04,13,07,222.40
2011,10,04,13,08,219.10
2011,10,04,13,09,216.60
2011,10,04,13,10,214.50
2011,10,04,13,11,213.20
2011,10,04,13,12,209.60
2011,10,04,13,13,204.30
2011,10,04,13,14,197.40
2011,10,04,13,15,186.00
2011,10,04,13,16,175.60
2011,10,04,13,17,166.60
2011,10,04,13,18,162.80
2011,10,04,13,19,161.60
2011,10,04,13,20,159.00
2011,10,04,13,21,154.50
2011,10,04,13,22,148.80
2011,10,04,13,23,142.20
2011,10,04,13,24,139.00
2011,10,04,13,25,140.30
2011,10,04,13,26,146.70
2011,10,04,13,27,157.10
2011,10,04,13,28,168.00
2011,10,04,13,29,177.70
2011,10,04,13,30,185.40
2011,10,04,13,31,191.20
2011,10,04,13,32,195.90
2011,10,04,13,33,198.60
2011,10,04,13,34,199.00
2011,10,04,13,35,197.20
2011,10,04,13,36,193.40
2011,10,04,13,37,193.00
2011,10,04,13,38,195.20
2011,10,04,13,39,199.30
2011,10,04,13,40,202.20
2011,10,04,13,41,204.50
2011,10,04,13,42,207.80
2011,10,04,13,43,211.50
2011,10,04,13,44,213.90
2011,10,04,13,45,217.50
2011,10,04,13,46,221.00
2011,10,04,13,47,219.70
2011,10,04,13,48,215.80
2011,10,04,13,49,210.10
2011,10,04,13,50,205.40
2011,10,04,13,51,202.80
2011,10,04,13,52,202.00
2011,10,04,13,53,200.60
2011,10,04,13,54,197.80
2011,10,04,13,55,193.80
2011,10,04,13,56,189.10
2011,10,04,13,57,185.60
2011,10,04,13,58,181.40
2011,10,04,13,59,176.30
2011,10,04,14,00,172.40
2011,10,04,14,01,169.10
2011,10,04,14,02,164.50
2011,10,04,14,03,159.40
2011,10,04,14,04,155.80
2011,10,04,14,05,154.60
2011,10,04,14,06,152.50
2011,10,04,14,07,150.20
2011,10,04,14,08,147.40
2011,10,04,14,09,144.40
2011,10,04,14,10,140.00
2011,10,04,14,11,135.70
2011,10,04,14,12,131.20
2011,10,04,14,13,126.30
2011,10,04,14,14,123.80
2011,10,04,14,15,121.70
2011,10,04,14,16,121.00
2011,10,04,14,17,121.00
2011,10,04,14,18,120.30
2011,10,04,14,19,117.00
2011,10,04,14,20,113.50
2011,10,04,14,21,111.20
2011,10,04,14,22,109.10
2011,10,04,14,23,110.90
2011,10,04,14,24,112.90
2011,10,04,14,25,120.50
2011,10,04,14,26,125.20
2011,10,04,14,27,128.20
2011,10,04,14,28,136.40
2011,10,04,14,29,150.10
2011,10,04,14,30,176.60
2011,10,04,14,31,201.80
2011,10,04,14,32,240.40
2011,10,04,14,33,240.50
2011,10,04,14,34,257.80
2011,10,04,14,35,293.50
2011,10,04,14,36,318.40
2011,10,04,14,37,311.80
2011,10,04,14,38,310.90
2011,10,04,14,39,308.70
2011,10,04,14,40,303.10
2011,10,04,14,41,291.20
2011,10,04,14,42,282.40
2011,10,04,14,43,271.30
2011,10,04,14,44,257.10
2011,10,04,14,45,243.60
2011,10,04,14,46,230.70
2011,10,04,14,47,219.40
2011,10,04,14,48,208.50
2011,10,04,14,49,197.90
2011,10,04,14,50,186.60
2011,10,04,14,51,178.00
2011,10,04,14,52,172.80
2011,10,04,14,53,167.80
2011,10,04,14,54,164.30
2011,10,04,14,55,162.60
2011,10,04,14,56,161.20
2011,10,04,14,57,158.00
2011,10,04,14,58,153.40
2011,10,04,14,59,149.40
2011,10,04,15,00,145.70
2011,10,04,15,01,140.80
2011,10,04,15,02,135.60
2011,10,04,15,03,129.50
2011,10,04,15,04,124.10
2011,10,04,15,05,119.00
2011,10,04,15,06,114.00
2011,10,04,15,07,109.40
2011,10,04,15,08,105.60
2011,10,04,15,09,102.00
2011,10,04,15,10,100.00
2011,10,04,15,11,99.80
2011,10,04,15,12,97.90
2011,10,04,15,13,97.00
2011,10,04,15,14,96.60
2011,10,04,15,15,94.50
2011,10,04,15,16,93.00
2011,10,04,15,17,92.30
2011,10,04,15,18,91.00
2011,10,04,15,19,90.60
2011,10,04,15,20,90.00
2011,10,04,15,21,89.10
2011,10,04,15,22,87.00
2011,10,04,15,23,84.30
2011,10,04,15,24,80.50
2011,10,04,15,25,75.50
2011,10,04,15,26,71.20
2011,10,04,15,27,67.80
2011,10,04,15,28,63.80
2011,10,04,15,29,62.20
2011,10,04,15,30,60.20
2011,10,04,15,31,56.20
2011,10,04,15,32,54.10
2011,10,04,15,33,52.90
2011,10,04,15,34,50.90
2011,10,04,15,35,49.00
2011,10,04,15,36,48.70
2011,10,04,15,37,47.00
2011,10,04,15,38,46.80
2011,10,04,15,39,46.00
2011,10,04,15,40,46.00
2011,10,04,15,41,46.00
2011,10,04,15,42,46.00
2011,10,04,15,43,46.00
2011,10,04,15,44,46.00
2011,10,04,15,45,46.50
2011,10,04,15,46,48.20
2011,10,04,15,47,50.20
2011,10,04,15,48,51.00
2011,10,04,15,49,51.00
2011,10,04,15,50,51.00
2011,10,04,15,51,51.00
2011,10,04,15,52,52.70
2011,10,04,15,53,53.00
2011,10,04,15,54,53.00
2011,10,04,15,55,53.00
2011,10,04,15,56,53.00
2011,10,04,15,57,53.00
2011,10,04,15,58,52.80
2011,10,04,15,59,51.00
2011,10,04,16,00,51.00
2011,10,04,16,01,51.00
2011,10,04,16,02,51.00
2011,10,04,16,03,51.00
2011,10,04,16,04,51.80
2011,10,04,16,05,53.00
2011,10,04,16,06,53.00
2011,10,04,16,07,52.10
2011,10,04,16,08,51.00
2011,10,04,16,09,51.00
2011,10,04,16,10,51.00
2011,10,04,16,11,51.00
2011,10,04,16,12,52.50
2011,10,04,16,13,53.00
2011,10,04,16,14,53.80
2011,10,04,16,15,54.00
2011,10,04,16,16,54.00
2011,10,04,16,17,54.00
2011,10,04,16,18,55.90
2011,10,04,16,19,56.00
2011,10,04,16,20,56.00
2011,10,04,16,21,55.70
2011,10,04,16,22,54.00
2011,10,04,16,23,53.80
2011,10,04,16,24,52.50
2011,10,04,16,25,51.50
2011,10,04,16,26,53.30
2011,10,04,16,27,54.00
2011,10,04,16,28,54.00
2011,10,04,16,29,53.50
2011,10,04,16,30,51.10
2011,10,04,16,31,47.90
2011,10,04,16,32,46.40
2011,10,04,16,33,44.70
2011,10,04,16,34,42.70
2011,10,04,16,35,40.60
2011,10,04,16,36,39.30
2011,10,04,16,37,39.00
2011,10,04,16,38,39.80
2011,10,04,16,39,40.00
2011,10,04,16,40,41.70
2011,10,04,16,41,42.00
2011,10,04,16,42,44.10
2011,10,04,16,43,45.90
2011,10,04,16,44,43.80
2011,10,04,16,45,41.50
2011,10,04,16,46,38.70
2011,10,04,16,47,36.50
2011,10,04,16,48,35.00
2011,10,04,16,49,35.00
2011,10,04,16,50,35.00
2011,10,04,16,51,35.80
2011,10,04,16,52,37.00
2011,10,04,16,53,37.00
2011,10,04,16,54,35.90
2011,10,04,16,55,33.80
2011,10,04,16,56,31.10
2011,10,04,16,57,28.70
2011,10,04,16,58,26.60
2011,10,04,16,59,25.30
2011,10,04,17,00,23.50
2011,10,04,17,01,21.30
2011,10,04,17,02,21.00
2011,10,04,17,03,21.00
2011,10,04,17,04,21.00
2011,10,04,17,05,21.00
2011,10,04,17,06,21.00
2011,10,04,17,07,21.20
2011,10,04,17,08,23.00
2011,10,04,17,09,23.00
2011,10,04,17,10,23.50
2011,10,04,17,11,25.00
2011,10,04,17,12,25.00
2011,10,04,17,13,25.00
2011,10,04,17,14,24.10
2011,10,04,17,15,23.00
2011,10,04,17,16,23.00
2011,10,04,17,17,23.00
2011,10,04,17,18,21.80
2011,10,04,17,19,21.00
2011,10,04,17,20,21.00
2011,10,04,17,21,19.60
2011,10,04,17,22,19.00
2011,10,04,17,23,19.00
2011,10,04,17,24,19.00
2011,10,04,17,25,19.00
2011,10,04,17,26,19.00
2011,10,04,17,27,18.10
2011,10,04,17,28,18.00
2011,10,04,17,29,17.80
2011,10,04,17,30,16.00
2011,10,04,17,31,16.00
2011,10,04,17,32,15.60
2011,10,04,17,33,14.00
2011,10,04,17,34,14.00
2011,10,04,17,35,13.40
2011,10,04,17,36,12.00
2011,10,04,17,37,12.00
2011,10,04,17,38,12.00
2011,10,04,17,39,12.00
2011,10,04,17,40,11.40